Precipitable_Water
0.51 0.46 0.38 0.34 0.30 0.26 0.24 0.23 0.26 0.31 0.37 0.41 0.44 0.42 0.46 0.40 0.35 0.31 0.28 0.26 0.27 0.25
0.43 0.36 0.33 0.30 0.26 0.23 0.22 0.25 0.29 0.35 0.38 0.43 0.45 0.42 0.41 0.35 0.28 0.25 0.25 0.26 0.27 0.25
0.38 0.34 0.31 0.28 0.24 0.23 0.23 0.28 0.34 0.38 0.42 0.45 0.41 0.36 0.31 0.27 0.26 0.24 0.25 0.25 0.24 0.23
0.36 0.33 0.31 0.28 0.25 0.24 0.25 0.28 0.34 0.40 0.42 0.39 0.35 0.37 0.27 0.25 0.25 0.24 0.24 0.25 0.23 0.21
0.36 0.33 0.31 0.29 0.27 0.27 0.26 0.29 0.34 0.37 0.37 0.34 0.37 0.36 0.25 0.25 0.25 0.25 0.25 0.24 0.22 0.22
0.34 0.33 0.32 0.30 0.28 0.28 0.28 0.29 0.31 0.34 0.34 0.34 0.31 0.26 0.26 0.27 0.27 0.27 0.27 0.26 0.23 0.22
0.34 0.34 0.33 0.30 0.28 0.28 0.29 0.30 0.32 0.32 0.37 0.36 0.30 0.25 0.27 0.28 0.27 0.28 0.28 0.26 0.24 0.22
0.35 0.34 0.32 0.28 0.28 0.28 0.30 0.33 0.32 0.33 0.29 0.27 0.27 0.27 0.29 0.29 0.29 0.30 0.27 0.24 0.21 0.19
0.33 0.32 0.28 0.28 0.27 0.28 0.30 0.33 0.33 0.32 0.31 0.30 0.31 0.32 0.32 0.30 0.29 0.26 0.20 0.16 0.16 0.17
0.31 0.28 0.27 0.27 0.26 0.27 0.29 0.33 0.34 0.32 0.33 0.33 0.33 0.31 0.30 0.28 0.23 0.19 0.17 0.16 0.16 0.17
0.27 0.26 0.27 0.27 0.26 0.28 0.29 0.29 0.32 0.31 0.31 0.28 0.28 0.27 0.24 0.22 0.19 0.17 0.17 0.17 0.18 0.18
0.26 0.25 0.26 0.26 0.26 0.27 0.27 0.28 0.28 0.28 0.27 0.24 0.23 0.22 0.22 0.19 0.18 0.17 0.17 0.18 0.19 0.19
0.25 0.25 0.25 0.27 0.27 0.27 0.28 0.26 0.26 0.26 0.25 0.24 0.22 0.22 0.21 0.19 0.18 0.17 0.17 0.17 0.17 0.19
0.24 0.25 0.26 0.27 0.28 0.27 0.26 0.24 0.24 0.24 0.24 0.23 0.23 0.22 0.20 0.19 0.19 0.18 0.17 0.15 0.13 0.18
Wind_Speed
32 34 36 39 41 42 44 45 46 45 43 43 45 47 49 51 50 49 48 47 45 41
34 35 38 40 41 43 45 46 45 44 43 45 46 50 49 49 48 45 44 41 37 35
36 37 39 40 42 44 45 46 45 44 44 45 49 49 47 45 43 41 37 34 32 30
38 38 39 41 43 45 47 47 46 45 45 48 49 47 44 41 36 33 31 30 28 28
38 39 41 43 45 47 47 48 47 46 48 49 48 44 38 34 31 30 29 28 28 30
39 40 42 45 47 48 49 49 48 48 50 48 43 38 33 31 29 29 29 29 30 32
39 41 44 47 48 49 50 49 49 48 47 43 38 32 29 28 28 29 30 30 32 34
41 43 46 48 49 50 49 49 49 46 43 36 31 28 27 26 28 30 31 31 33 34
42 45 47 48 50 50 49 48 47 44 37 31 27 26 26 27 29 29 30 31 32 34
44 46 47 49 50 50 49 47 44 39 33 29 25 24 26 27 28 28 29 30 32 33
46 47 47 50 50 49 48 44 40 34 29 25 23 24 25 26 26 27 28 30 31 31
46 47 48 50 50 48 44 40 34 29 25 23 23 24 25 26 26 26 27 28 29 30
47 47 49 49 47 44 41 36 31 26 24 23 23 24 24 24 24 25 26 27 28 28
47 48 49 47 44 41 36 32 27 24 23 22 22 23 23 23 23 24 25 26 27 26
Wind_Direction
315 313 313 313 313 313 312 312 311 308 307 306 307 307 307 307 307 306 305 304 303 302
317 317 316 316 316 315 315 314 312 310 308 308 308 309 307 307 307 307 306 305 304 304
319 318 318 318 318 318 317 316 313 311 310 310 311 310 309 308 308 307 307 306 306 306
319 319 319 319 320 320 319 318 315 312 310 310 311 310 309 308 308 308 309 309 307 307
318 319 320 321 321 321 320 319 316 313 311 311 310 308 307 307 307 309 309 309 308 308
318 319 320 321 322 321 321 319 316 313 312 312 311 308 305 304 305 308 307 308 308 308
317 319 320 321 321 321 321 319 318 316 315 312 309 307 305 304 305 308 308 308 308 310
317 319 320 321 321 321 321 321 321 319 317 315 310 306 307 305 307 308 308 308 310 311
317 318 320 321 322 322 322 321 322 320 318 315 310 308 308 308 309 310 310 311 312 314
316 318 319 321 322 322 322 321 321 320 318 314 311 309 310 312 312 313 313 314 316 317
317 318 319 321 322 322 322 321 319 318 316 315 313 312 314 315 315 315 316 318 319 320
317 318 319 321 322 322 321 321 319 317 315 314 314 315 316 317 317 318 320 321 322 323
318 318 319 320 321 321 320 319 317 315 313 313 314 317 318 320 320 321 323 325 326 326
319 319 319 319 320 320 319 318 316 313 312 313 315 317 319 321 322 324 326 328 329 330